Zurück zum Katalog

SL-8 R/B

AktivLEO
NORAD 1575·ROCKET BODY·🇷🇺 Russia

Gestartet Sep 3, 1965 von Baikonur Cosmodrome

Loading…

Nächste Überflüge (nächste 24 Stunden)

TLE

AktuellSource: Space-Track

Epoche: Sep 14, 2026, 07:06 UTC

1 01575U 65070F   26257.29651436 -.00000100  00000-0 -19754-4 0  9997
2 01575  56.1224 228.3833 0098567 200.9031 302.1194 12.57010220801963

Verfolge SL-8 R/B in Echtzeit mit AllMySat

Download on the App Store